EW6193 Weather Reports


Display with metric or nautical units.
time (UTC)temp
F
wind
direction
speed
MPH
gust
MPH
rain 1hr
in
rain 24hr
in
rain mn
in
humidity
%
barometer
mb
20260506201600 55 258 0.0 2.0 0.00 0.00 0.00 91 1019.0
20260506200059 55 252 1.0 4.0 0.00 0.00 0.00 91 1019.1
20260506194633 55 255 0.0 2.0 0.00 0.00 0.00 91 1018.9
20260506193106 55 247 1.0 4.0 0.00 0.00 0.00 90 1019.0
20260506191556 56 258 0.0 2.0 0.00 0.00 0.00 90 1019.1
20260506190100 55 239 0.0 0.0 0.00 0.00 0.00 89 1019.1
20260506184554 55 255 0.0 2.0 0.00 0.00 0.00 89 1019.3
20260506183053 55 265 0.0 1.0 0.00 0.00 0.00 88 1019.3
20260506181552 56 265 0.0 1.0 0.00 0.00 0.00 89 1019.3
20260506174549 55 266 1.0 3.0 0.00 0.00 0.00 89 1019.6
20260506173049 54 247 0.0 2.0 0.00 0.00 0.00 88 1019.8
20260506171547 54 261 0.0 1.0 0.00 0.00 0.00 86 1020.0
20260506170055 54 260 0.0 0.0 0.00 0.00 0.00 85 1020.1
20260506164541 55 257 0.0 1.0 0.00 0.00 0.00 84 1020.3
20260506163057 56 299 0.0 1.0 0.00 0.00 0.00 83 1020.5
20260506161536 56 312 0.0 0.0 0.00 0.00 0.00 82 1020.7
20260506160035 56 312 0.0 0.0 0.00 0.00 0.00 80 1020.9
20260506154532 55 312 0.0 0.0 0.00 0.00 0.00 82 1021.1
20260506153030 55 312 0.0 1.0 0.00 0.00 0.00 82 1021.3
20260506151526 54 264 0.0 5.0 0.00 0.00 0.00 86 1021.5
20260506150027 53 250 0.0 0.0 0.00 0.00 0.00 84 1021.6
20260506144524 54 254 0.0 2.0 0.00 0.00 0.00 84 1021.9
20260506143020 54 304 0.0 1.0 0.00 0.00 0.00 84 1022.1
20260506141517 54 268 0.0 1.0 0.00 0.00 0.00 84 1022.4
20260506140017 54 268 0.0 1.0 0.00 0.00 0.00 84 1022.5
20260506134515 54 268 0.0 1.0 0.00 0.00 0.00 85 1022.7
20260506133014 53 270 0.0 2.0 0.00 0.00 0.00 85 1022.7
20260506131514 53 255 0.0 0.0 0.00 0.00 0.00 84 1022.7
20260506130012 53 264 0.0 1.0 0.00 0.00 0.00 84 1022.8
20260506124509 53 245 0.0 1.0 0.00 0.00 0.00 84 1022.9
20260506123008 53 297 0.0 1.0 0.00 0.00 0.00 84 1023.1
20260506121506 54 321 0.0 1.0 0.00 0.00 0.00 83 1023.0
20260506120003 54 245 1.0 3.0 0.00 0.00 0.00 83 1023.0
20260506114504 54 267 0.0 1.0 0.00 0.00 0.00 83 1023.0
20260506113004 53 257 0.0 1.0 0.00 0.00 0.00 84 1023.0
20260506111502 53 262 0.0 2.0 0.00 0.00 0.00 83 1022.9
20260506110001 52 254 1.0 2.0 0.00 0.00 0.00 83 1023.0
20260506104502 53 249 2.0 3.0 0.00 0.00 0.00 83 1023.0
20260506103100 53 248 1.0 3.0 0.00 0.00 0.00 82 1023.0
20260506101606 53 249 2.0 4.0 0.00 0.00 0.00 83 1023.0
20260506100058 53 267 1.0 4.0 0.00 0.00 0.00 84 1023.1
20260506094622 52 259 0.0 1.0 0.00 0.00 0.00 83 1023.1
20260506093057 52 260 0.0 2.0 0.00 0.00 0.00 86 1023.1
20260506091557 51 249 0.0 0.0 0.00 0.00 0.00 82 1023.1
20260506090056 51 249 0.0 0.0 0.00 0.00 0.00 84 1023.1
20260506084555 52 249 0.0 0.0 0.00 0.00 0.00 81 1023.3
20260506083102 52 249 0.0 0.0 0.00 0.00 0.00 78 1023.3
20260506081555 53 249 0.0 2.0 0.00 0.00 0.00 81 1023.2
20260506073050 57 230 0.0 1.0 0.00 0.00 0.00 73 1023.2
20260506071548 58 230 0.0 0.0 0.00 0.00 0.00 72 1023.1
20260506061546 60 260 0.0 4.0 0.00 0.00 0.00 73 1022.8
20260506044546 64 262 3.0 9.0 0.00 0.00 0.00 66 1022.0
20260506043042 65 252 5.0 12.0 0.00 0.00 0.00 64 1021.8
20260506041540 65 269 5.0 13.0 0.00 0.00 0.00 64 1021.8
20260506040055 66 276 6.0 11.0 0.00 0.00 0.00 62 1021.8
20260506034542 66 278 6.0 14.0 0.00 0.00 0.00 60 1021.7
20260506033038 67 272 6.0 13.0 0.00 0.00 0.00 61 1021.5
20260506031552 67 276 6.0 11.0 0.00 0.00 0.00 58 1021.5
20260506030037 68 252 6.0 13.0 0.00 0.00 0.00 57 1021.5
20260506024533 67 250 8.0 14.0 0.00 0.00 0.00 55 1021.6
20260506023032 68 284 7.0 14.0 0.00 0.00 0.00 55 1021.5
20260506021528 68 249 8.0 17.0 0.00 0.00 0.00 55 1021.7
20260506020025 68 274 7.0 18.0 0.00 0.00 0.00 57 1021.9
20260506014522 68 294 6.0 14.0 0.00 0.00 0.00 61 1021.9
20260506013020 67 271 6.0 11.0 0.00 0.00 0.00 62 1022.0
20260506011518 68 265 6.0 14.0 0.00 0.00 0.00 61 1022.2
20260506010017 67 250 5.0 11.0 0.00 0.00 0.00 62 1022.3
20260506004523 68 254 5.0 11.0 0.00 0.00 0.00 62 1022.6
20260506003015 67 237 5.0 12.0 0.00 0.00 0.00 62 1022.9
20260506001511 68 239 7.0 13.0 0.00 0.00 0.00 58 1023.1
20260506000008 66 269 3.0 11.0 0.00 0.00 0.00 63 1023.4
20260505234506 67 271 6.0 17.0 0.00 0.00 0.00 59 1023.5
20260505233004 66 277 5.0 11.0 0.00 0.00 0.00 61 1023.7
20260505231501 66 264 3.0 9.0 0.00 0.00 0.00 65 1023.8
20260505230058 65 265 6.0 12.0 0.00 0.00 0.00 65 1023.9
20260505224558 65 261 4.0 11.0 0.00 0.00 0.00 64 1024.0
20260505223057 64 259 4.0 9.0 0.00 0.00 0.00 56 1024.1
20260505221552 64 256 4.0 8.0 0.00 0.00 0.00 57 1024.1
20260505220047 62 262 3.0 10.0 0.00 0.00 0.00 59 1024.3
20260505214550 61 269 4.0 8.0 0.00 0.00 0.00 60 1024.4
20260505213042 60 264 4.0 8.0 0.00 0.00 0.00 63 1024.4
20260505211535 58 283 4.0 9.0 0.00 0.00 0.00 66 1024.3
20260505210031 56 275 4.0 8.0 0.00 0.00 0.00 68 1024.6
20260505204533 54 261 4.0 9.0 0.00 0.00 0.00 71 1024.5
20260505203031 53 262 3.0 6.0 0.00 0.00 0.00 72 1024.4